Hourly Data Report for October 16, 2015

All times are specified in Local Standard Time (LST). Add 1 hour to adjust for Daylight Saving Time where and when it is observed.

TORONTO INTL A
ONTARIO

43°40'36.000" N
79°37'50.000" W
173.40 m
6158731
71624
YYZ

Download Data

Hourly Data (October 2015)
Hourly Data Report for October 16, 2015
Temp Definition
°C
Dew Point Temp Definition
°C
Rel Hum Definition
%
Wind Dir Definition
10's deg

Wind Spd Definition
km/h
Visibility Definition
km
Stn Press Definition
kPa
Hmdx Definition


Wind Chill Definition


Weather Definition


TIME
00:00 Legend Double Dagger 8.2 4.8 79 28 19 24.1 98.99     LegendNANA
01:00 Legend Double Dagger 7.9 4.9 81 29 10 24.1 99.07     Mostly Cloudy
02:00 Legend Double Dagger 6.6 3.9 83 28 10 24.1 99.14     LegendNANA
03:00 Legend Double Dagger 6.4 4.2 86 28 16 24.1 99.17     LegendNANA
04:00 Legend Double Dagger 5.9 3.8 86 26 19 24.1 99.21     Clear
05:00 Legend Double Dagger 5.5 3.4 86 28 18 24.1 99.29     LegendNANA
06:00 Legend Double Dagger 5.2 3.2 87 26 16 24.1 99.36     LegendNANA
07:00 Legend Double Dagger 5.2 3.1 86 28 14 24.1 99.45     Clear
08:00 Legend Double Dagger 6.9 3.9 81 29 16 24.1 99.52     LegendNANA
09:00 Legend Double Dagger 8.5 4.4 75 28 17 24.1 99.56     LegendNANA
10:00 Legend Double Dagger 10.8 5.4 69 27 16 24.1 99.53     Mainly Clear
11:00 Legend Double Dagger 11.3 4.8 64 26 22 24.1 99.49     LegendNANA
12:00 Legend Double Dagger 8.4 4.8 78 30 44 19.3 99.48     Rain Showers
13:00 Legend Double Dagger 11.2 5.3 67 27 33 24.1 99.41     Mainly Clear
14:00 Legend Double Dagger 9.8 4.8 71 28 30 24.1 99.39     Rain Showers
15:00 Legend Double Dagger 9.9 3.4 64 32 28 24.1 99.46     LegendNANA
16:00 Legend Double Dagger 8.1 2.4 67 30 35 24.1 99.54     Mostly Cloudy
17:00 Legend Double Dagger 8.1 -1.7 50 30 38 24.1 99.59     LegendNANA
18:00 Legend Double Dagger 6.9 -1.5 55 31 25 24.1 99.67     LegendNANA
19:00 Legend Double Dagger 5.7 -1.2 61 30 26 24.1 99.73     Mainly Clear
20:00 Legend Double Dagger 5.3 -2.1 59 30 34 24.1 99.74     LegendNANA
21:00 Legend Double Dagger 4.2 -1.8 65 28 24 24.1 99.74     LegendNANA
22:00 Legend Double Dagger 4.2 -1.8 65 31 25 24.1 99.80     Mainly Clear
23:00 Legend Double Dagger 4.0 -1.0 70 31 27 24.1 99.85     LegendNANA

Notes on Data Quality.

Legend

  • E = Estimated
  • M = Missing
  • NA = Not Available
  • ‡ = Partner data that is not subject to review by the National Climate Archives
Date modified: